www.pogodaiklimat.ru

Погода и климат >> Архив погоды >> Иран >> Nehbandan


ПОГОДА в Nehbandan

  • Прогноз погоды в Nehbandan
  • Монитор погоды в Nehbandan
  • Климат города

АРХИВ ПОГОДЫ в Nehbandan

Время (UTC), дата Ветер
(напр.,м/с)
 
Видим.   Явления Облачность Т
(С)
Тd
(С)
f
(%)
Тe
(С)
Тes
(С)
Комфортность P
(гПа)
Po
(гПа)
Тmin
(С)
Tmax
(С)
R
(мм)
R24
(мм)
S
(см)
00 16.01 штиль 0 15 км ясно +2.5 -18.9 19 +3 +3 1011.3 878.2
03 16.01 штиль 0 20 км ясно +0.4 -18.8 22 +1 +1 1014.3 878.7 +0.3
06 16.01 штиль 0 15 км ясно +10.1 -21.4 9 +10 +18 1015.2 881.1
09 16.01 ЮЗ 3 12 км ясно +14.8 -20.7 7 +14 +21 1013.0 879.4
12 16.01 З 8 15 км 1/1 1200 м
[Cu hum]
+15.9 -19.4 7 +14 +15 1012.9 879.2
15 16.01 З 3 15 км ясно +11.1 -16.1 13 +10 +10 1016.6 880.9 +16.9
18 16.01 штиль 0 15 км ясно +4.9 -14.5 23 +5 +5 1016.7 881.8
21 16.01 штиль 0 15 км ясно +1.2 -11.2 39 +1 +1 1016.2 881.8
00 17.01 штиль 0 15 км ясно -1.2 -10.8 48 -2 -2 1016.7 881.8
03 17.01 штиль 0 20 км 3/0
[Ci fib]
-2.8 -11.1 53 -3 -3 1019.7 882.9 -2.8
06 17.01 штиль 0 15 км 3/0
[Ci fib]
+7.5 -10.8 26 +8 +15 1020.9 884.9
09 17.01 В 3 20 км 4/0
[Ci fib]
+11.7 -11.3 19 +11 +17 1018.0 882.5
12 17.01 ЮВ 3 20 км 4/0
[Ci fib]
+11.3 -10.6 20 +10 +11 1017.9 881.8
15 17.01 СВ 2 15 км ясно +7.0 -10.2 28 +6 +6 1021.1 883.2 +12.2
18 17.01 штиль 0 15 км ясно +4.9 -11.0 31 +5 +5 1019.2 883.4
21 17.01 штиль 0 15 км ясно +4.0 -10.4 34 +4 +4 1017.5 882.8
00 18.01 штиль 0 15 км ясно +3.2 -9.6 38 +3 +3 1017.0 882.0
03 18.01 штиль 0 20 км ясно +2.5 -10.0 39 +2 +2 1018.5 882.2 +0.9
06 18.01 СВ 2 18 км 1/0
[Ci fib]
+8.7 -10.2 25 +8 +13 1019.4 883.9
09 18.01 ЮВ 4 18 км ясно +12.0 -11.7 18 +11 +16 1015.7 881.2
12 18.01 ЮВ 3 18 км ясно +13.5 -11.8 16 +13 +14 1014.6 880.4
15 18.01 штиль 0 15 км ясно +7.6 -12.3 23 +8 +8 1018.3 882.1 +14.0
18 18.01 штиль 0 15 км ясно +4.0 -12.6 29 +4 +4 1018.7 883.0
21 18.01 штиль 0 15 км ясно +1.8 -14.4 29 +2 +2 1017.9 883.3
00 19.01 штиль 0 15 км ясно +0.5 -13.7 34 0 0 1018.0 882.7
03 19.01 штиль 0 20 км ясно -1.6 -13.0 41 -2 -2 1021.2 883.7 -2.2
06 19.01 штиль 0 20 км ясно +12.2 -11.3 18 +12 +20 1021.6 886.3
09 19.01 штиль 0 2000 м ясно +17.6 -10.9 13 +18 +28 1019.0 884.8
12 19.01 ЮВ 5 20 км ясно +17.2 -15.4 9 +17 +17 1018.8 884.2
15 19.01 В 3 15 км ясно +10.5 -11.6 20 +9 +9 1022.5 885.5 +18.2
18 19.01 С 2 15 км ясно +8.3 -11.8 23 +7 +7 1020.0 885.9
21 19.01 штиль 0 15 км ясно +2.5 -13.9 29 +3 +3 1018.0 884.7
00 20.01 штиль 0 15 км ясно +1.0 -13.2 34 +1 +1 1017.7 883.4
03 20.01 штиль 0 15 км ясно -1.2 -14.5 36 -1 -1 1020.1 883.5 -1.3
06 20.01 В 3 20 км ясно +13.1 -14.7 13 +12 +17 1018.2 884.5
09 20.01 В 2 20 км ясно +16.5 -14.8 10 +17 +25 1015.4 881.5
12 20.01 ЮВ 4 20 км ясно +16.4 -14.3 11 +16 +17 1014.2 880.2
15 20.01 штиль 0 15 км ясно +10.7 -13.5 17 +11 +11 1017.0 880.8 +17.1
18 20.01 штиль 0 15 км ясно +7.8 -13.6 20 +8 +8 1013.5 880.3
21 20.01 штиль 0 15 км ясно +3.3 -14.2 26 +3 +3 1011.4 878.7
00 21.01 штиль 0 15 км ясно +1.4 -13.4 32 +1 +1 1011.0 877.5
03 21.01 штиль 0 20 км 5/0
[Ac trans Ci fib]
+1.4 -12.8 34 +1 +1 1012.8 877.8 +1.0
06 21.01 штиль 0 12 км 3/1 1050 м
[Sc diur, vesp Ac trans]
+13.4 -11.4 17 +14 +20 1012.2 879.3
09 21.01 З 7 8000 м пыль 9/1 1200 м
[Cu hum As trans]
+11.1 -0.2 46 +8 +9 1011.9 877.7
12 21.01 С 3 20 км в посл. час дождь 9/3 900 м
[Cb calv As op]
+6.2 +1.3 71 +3 +3 1015.7 879.5 2
15 21.01 З 4 15 км 6/0
[Ac As]
+5.3 +1.3 75 +1 +1 1017.6 881.0 +14.5
18 21.01 штиль 0 15 км 4/0
[Ac trans]
+4.4 +0.5 76 +4 +4 1016.1 882.1
21 21.01 З 4 15 км 1/0
[Ac trans]
+4.6 +2.5 86 0 0 1016.2 881.8
00 22.01 ЮЗ 2 15 км ясно +3.1 +1.7 91 0 0 1018.4 882.3
03 22.01 З 3 20 км ясно +2.2 +0.4 88 -2 -2 1020.4 883.6 +1.7
06 22.01 Ю 3 20 км ясно +7.2 +1.7 68 +5 +10 1022.0 885.9
09 22.01 ЮЗ 3 20 км 1/1 1200 м
[Cu hum]
+10.7 +1.9 54 +9 +15 1019.0 884.1
12 22.01 ЮЗ 2 20 км 1/1 1200 м
[Cu hum]
+13.5 -0.6 38 +13 +14 1017.4 883.0
15 22.01 З 2 15 км ясно +10.4 -0.6 46 +9 +9 1019.8 884.2 +13.7
18 22.01 СЗ 2 15 км ясно +9.1 -1.6 47 +8 +8 1018.9 884.2
21 22.01 штиль 0 15 км ясно +2.8 -2.0 71 +2 +2 882.9

 

Местоположение метеостанции Nehbandan (Иран): широта 31.53 долгота 60.03 высота над уровнем моря 1211 м.

В архиве по умолчанию представлена погода в Nehbandan за последнюю неделю. Архивные данные за месяц целиком и за предыдущие месяцы, начиная с января 2011 года, Вы можете получить, выбрав интересующий диапазон дат из раскрывающегося списка и нажав кнопку "Ввод!".

Внимание! Время в таблицах - всемирное. Для получения местного времени необходимо прибавить поправку, которая в Nehbandan равна 3.5 ч.

Смотрите также архив погоды в соседних городах и на ближайших метеорологических станциях:

Погода в Zabol (Иран) (148 км)
Погода в Birjand (Иран) (168 км)
Погода в Zahedan (Иран) (243 км)
Погода в Bam (Иран) (312 км)
Погода в Kerman (Иран) (325 км)
Погода в Ferdous (Иран) (327 км)
Погода в Herat (Афганистан) (362 км)
Погода в Tabas (Иран) (371 км)
Погода в Nokkundi (Пакистан) (399 км)
Погода в Lashkargah (Афганистан) (411 км)

Пояснения к столбцам:

Ветер - указаны скорость ветра в м/с - средняя за 10 мин, порывы в срок и между сроками (в фигурных скобках) и направление, откуда дует ветер: С - северный, СВ - северо-восточный, В - восточный, ЮВ - юго-восточный, Ю - южный, ЮЗ - юго-западный, З - западный, СЗ - северо-западный.
Видимость - горизонтальная дальность видимости в метрах или километрах. При видимости от 1 до 10 км при отсутствии осадков обычно наблюдается дымка, при ухудшении видимости до 1 км и менее - туман. В сухую погоду видимость может ухудшаться дымом, пылью или мглою.
Явления - указаны атмосферные явления, наблюдавшиеся в срок или в последний час перед сроком; фигурными скобками обозначены явления, наблюдавшиеся между сроками (за 1-3 часа до срока); квадратными скобками обозначены град или гололедные отложения с указанием их диаметра в мм.
Облачность - указаны через наклонную черту общая и нижняя облачность в баллах и высота нижней границы облаков в метрах; квадратными скобками обозначены формы облаков: Ci - перистые, Cs - перисто-слоистые, Cc - перисто-кучевые, Ac - высококучевые, As - высокослоистые, Sc - слоисто-кучевые, Ns - слоисто-дождевые, Cu - кучевые, Cb - кучево-дождевые. Подробнее классификацию облаков см. в Атласе облаков (PDF).
T - Температура воздуха - температура, измеренная на высоте 2 м над землей.
Td - Температура точки росы - температура, при понижении до которой содержащийся в воздухе водяной пар достигнет насыщения.
f - Относительная влажность воздуха - влажноcть воздуха, измеренная на высоте 2 м над землей.
Te - Эффективная температура - температура, которую ощущает одетый по сезону человек в тени. Характеристика душности погоды. При расчете учитывается влияние влажности воздуха и скорости ветра на теплоощущения человека.
Tes - Эффективная температура на солнце - температура, которую ощущает человек, с поправкой на солнечный нагрев. Характеристика знойности погоды. Зависит от высоты солнца над горизонтом, облачности и скорости ветра. Ночью, в пасмурную погоду, а также при ветре 12 м/с и более поправка равна нулю.
P - Атмосферное давление - приведенное к уровню моря атмосферное давление.
Po - Атмосферное давление - измеренное на уровне метеостанции атмосферное давление.
Tmin - Минимальная температура - минимум температуры воздуха на высоте 2 м над землей.
Tmax - Максимальная температура - максимум температуры воздуха на высоте 2 м над землей.
R - Количество осадков - Количество выпавших осадков за период времени, мм. При наведении курсора мыши на число - период времени, за который выпало указанное количество осадков.
R24 - Количество осадков - Количество выпавших осадков за 24 часа, мм.
S - Снежный покров - Высота снежного покрова, см. При наведении курсора мыши на число - состояние снежного покрова и степень покрытия местности в баллах.